User: anonymous   Login
Location: Banksville Park
(38.5557°N, 75.1182°W)
Time: 10:30:43
(UTC+00:00)
Language:

MINOTAUR IV R/B - Orbit

View from above orbital plane
View from above orbital plane
View from above satellite
View from above satellite

Ground track
Ground track

The orbit data is extracted from the following two-line orbital elements,

1 37228U 10062G   20327.16793052 0.00000091  00000-0  12231-4 0    04
2 37228  71.9634 342.3054 0015289 326.6285  33.4375 14.79156133    07
Epoch (UTC): 22 November 2020 04:01:49
Eccentricity: 0.0015289
inclination: 71.9634°
perigee height: 621 km
apogee height: 643 km
right ascension of ascending node: 342.3054°
argument of perigee: 326.6285°
revolutions per day: 14.79156133
mean anomaly at epoch: 33.4375°
orbit number at epoch: 0

The dashed part of the orbit path shows where the satellite is in the earth's shadow,  

DLR